map of CJA home
Great Circle Mapper logo
CJA - Airport
Location
City:  Cajamarca, Perú
Name:Major General FAP Armando Revoredo Iglesias
ICAO / IATA:SPJR / CJA

Details
Type:Airport (Aerodrome, Airfield)
Latitude:7°08'21"S (-7.139182)
Longitude:78°29'22"W (-78.489399)
Datum:WGS 1984
Elevation:8781 ft (2676 m)
Runways:1
Longest:8202 × 148 ft (2500 × 45 m), paved

Time
Time Zone:UTC-5
Local Time:

Weather
METAR:SPJR 241830Z 10005KT 9999 SCT030 BKN043 23/10 Q1025
TAF:SPJR 241700Z 2418/2518 16006KT 9999 FEW033 SCT043 TX23/2420Z TN08/2511Z
TEMPO 2420/2423 SCT026 BKN043
FM250000 00000KT 9999 SCT040

Related Locations
Nearby:
Farthest:PAN: 12426 mi / 19997 km
Pattani, TH

Find:

   beyond  
but within

Other Information
Maps:
NOTAMs:
Links:
Sources:

  
flag of Perú   

Sectional Chart

Flight Planning
at skyvector.com

Satellite Image

Google Maps Satellite View

 

Copyright © 2004-2014 Karl L. Swartz. All rights reserved.
The Great Circle Mapper name and logo are trademarks of the Great Circle Mapper.
All other trademarks mentioned herein belong to their respective owners.
Please see credits for attibutions and further copyright information.

  Follow gcmap on Facebook Follow gcmap on Twitter

hCard Microformat

Geo Microformat